Time,TemperatureF,DewpointF,PressureIn,WindDirection,WindDirectionDegrees,WindSpeedMPH,WindSpeedGustMPH,Humidity,HourlyPrecipIn,Conditions,Clouds,dailyrainin,SolarRadiationWatts/m^2,SoftwareType,DateUTC
2013-03-04 00:00:00,51.1,42.4,30.16,North,360,5.0,10.0,72,0.00,,CLR,0.00,0.00,VWS V14.01,2013-03-04 05:00:00,
2013-03-04 00:05:00,50.9,41.8,30.16,NW,316,9.0,11.0,71,0.00,,CLR,0.00,0.00,VWS V14.01,2013-03-04 05:05:00,
2013-03-04 00:10:00,50.8,41.8,30.16,NNW,345,2.0,13.0,71,0.00,,CLR,0.00,0.00,VWS V14.01,2013-03-04 05:10:00,
2013-03-04 00:15:00,50.6,41.6,30.16,NNW,338,9.0,13.0,71,0.00,,CLR,0.00,0.00,VWS V14.01,2013-03-04 05:15:00,
2013-03-04 00:20:00,50.5,41.8,30.16,NNW,344,7.0,16.0,72,0.00,,CLR,0.00,0.00,VWS V14.01,2013-03-04 05:20:00,
2013-03-04 00:25:00,50.4,41.7,30.16,NNW,333,8.0,12.0,72,0.00,,CLR,0.00,0.00,VWS V14.01,2013-03-04 05:25:00,
2013-03-04 00:30:00,50.3,41.6,30.16,NNW,341,7.0,10.0,72,0.00,,CLR,0.00,0.00,VWS V14.01,2013-03-04 05:30:00,
2013-03-04 00:35:00,50.1,41.4,30.16,NW,311,6.0,7.0,72,0.00,,CLR,0.00,0.00,VWS V14.01,2013-03-04 05:35:00,
2013-03-04 00:40:00,49.9,41.2,30.16,NNW,329,6.0,11.0,72,0.00,,CLR,0.00,0.00,VWS V14.01,2013-03-04 05:40:00,
2013-03-04 00:45:00,49.7,41.0,30.16,NNW,327,3.0,9.0,72,0.00,,CLR,0.00,0.00,VWS V14.01,2013-03-04 05:45:00,
2013-03-04 00:50:00,49.6,41.0,30.16,NW,325,10.0,13.0,72,0.00,,CLR,0.00,0.00,VWS V14.01,2013-03-04 05:50:00,
2013-03-04 00:55:00,49.4,40.8,30.16,NW,319,3.0,11.0,72,0.00,,CLR,0.00,0.00,VWS V14.01,2013-03-04 05:55:00,
2013-03-04 01:00:00,49.3,41.0,30.16,WNW,289,5.0,6.0,73,0.00,,CLR,0.00,0.00,VWS V14.01,2013-03-04 06:00:00,
2013-03-04 01:05:00,49.2,40.9,30.16,NNW,333,5.0,9.0,73,0.00,,CLR,0.00,0.00,VWS V14.01,2013-03-04 06:05:00,
2013-03-04 01:10:00,49.2,40.9,30.16,NNW,342,3.0,7.0,73,0.00,,CLR,0.00,0.00,VWS V14.01,2013-03-04 06:10:00,
2013-03-04 01:15:00,49.1,40.8,30.16,NNW,342,6.0,9.0,73,0.00,,CLR,0.00,0.00,VWS V14.01,2013-03-04 06:15:00,
2013-03-04 01:20:00,49.0,40.7,30.16,NW,325,4.0,9.0,73,0.00,,CLR,0.00,0.00,VWS V14.01,2013-03-04 06:20:00,
2013-03-04 01:25:00,48.9,40.6,30.16,NW,325,3.0,8.0,73,0.00,,CLR,0.00,0.00,VWS V14.01,2013-03-04 06:25:00,
2013-03-04 01:30:00,48.9,40.6,30.16,NNW,329,7.0,10.0,73,0.00,,CLR,0.00,0.00,VWS V14.01,2013-03-04 06:30:00,
2013-03-04 01:35:00,48.8,40.9,30.16,NNW,333,6.0,7.0,74,0.00,,CLR,0.00,0.00,VWS V14.01,2013-03-04 06:35:00,
2013-03-04 01:40:00,48.7,40.8,30.16,NW,321,5.0,8.0,74,0.00,,CLR,0.00,0.00,VWS V14.01,2013-03-04 06:40:00,
2013-03-04 01:45:00,48.8,40.9,30.16,NNW,333,8.0,10.0,74,0.00,,CLR,0.00,0.00,VWS V14.01,2013-03-04 06:45:00,
2013-03-04 01:50:00,48.7,40.8,30.16,NW,321,6.0,12.0,74,0.00,,CLR,0.00,0.00,VWS V14.01,2013-03-04 06:50:00,
2013-03-04 01:55:00,48.6,40.7,30.16,NW,323,4.0,10.0,74,0.00,,CLR,0.00,0.00,VWS V14.01,2013-03-04 06:55:00,
2013-03-04 02:00:00,48.5,40.6,30.16,NNW,342,5.0,10.0,74,0.00,,CLR,0.00,0.00,VWS V14.01,2013-03-04 07:00:00,
2013-03-04 02:05:00,48.4,40.5,30.16,NNW,344,3.0,5.0,74,0.00,,CLR,0.00,0.00,VWS V14.01,2013-03-04 07:05:00,
2013-03-04 02:10:00,48.2,40.7,30.16,NNW,331,11.0,11.0,75,0.00,,CLR,0.00,0.00,VWS V14.01,2013-03-04 07:10:00,
2013-03-04 02:15:00,48.1,40.6,30.16,NW,318,6.0,12.0,75,0.00,,CLR,0.00,0.00,VWS V14.01,2013-03-04 07:15:00,
2013-03-04 02:20:00,47.9,40.4,30.16,NNW,333,4.0,13.0,75,0.00,,CLR,0.00,0.00,VWS V14.01,2013-03-04 07:20:00,
2013-03-04 02:25:00,47.7,40.2,30.16,NNW,336,6.0,9.0,75,0.00,,CLR,0.00,0.00,VWS V14.01,2013-03-04 07:25:00,
2013-03-04 02:30:00,47.6,40.1,30.16,NNW,333,7.0,10.0,75,0.00,,CLR,0.00,0.00,VWS V14.01,2013-03-04 07:30:00,
2013-03-04 02:35:00,47.4,39.9,30.15,NNW,338,5.0,8.0,75,0.00,,CLR,0.00,0.00,VWS V14.01,2013-03-04 07:35:00,
2013-03-04 02:40:00,47.3,39.8,30.15,NNW,345,4.0,7.0,75,0.00,,CLR,0.00,0.00,VWS V14.01,2013-03-04 07:40:00,
2013-03-04 02:45:00,47.1,39.6,30.15,North,355,3.0,9.0,75,0.00,,CLR,0.00,0.00,VWS V14.01,2013-03-04 07:45:00,
2013-03-04 02:50:00,47.0,39.5,30.15,NNW,334,6.0,12.0,75,0.00,,CLR,0.00,0.00,VWS V14.01,2013-03-04 07:50:00,
2013-03-04 02:55:00,46.9,39.4,30.15,NNW,335,9.0,9.0,75,0.00,,CLR,0.00,0.00,VWS V14.01,2013-03-04 07:55:00,
2013-03-04 03:00:00,46.8,39.3,30.15,North,355,5.0,10.0,75,0.00,,CLR,0.00,0.00,VWS V14.01,2013-03-04 08:00:00,
2013-03-04 03:05:00,46.7,39.2,30.14,NW,315,6.0,11.0,75,0.00,,CLR,0.00,0.00,VWS V14.01,2013-03-04 08:05:00,
2013-03-04 03:10:00,46.7,39.2,30.14,North,350,4.0,8.0,75,0.00,,CLR,0.00,0.00,VWS V14.01,2013-03-04 08:10:00,
2013-03-04 03:15:00,46.6,39.1,30.14,NNW,346,2.0,8.0,75,0.00,,CLR,0.00,0.00,VWS V14.01,2013-03-04 08:15:00,
2013-03-04 03:20:00,46.5,39.0,30.14,NNW,342,5.0,11.0,75,0.00,,CLR,0.00,0.00,VWS V14.01,2013-03-04 08:20:00,
2013-03-04 03:25:00,46.4,38.9,30.14,North,355,4.0,8.0,75,0.00,,CLR,0.00,0.00,VWS V14.01,2013-03-04 08:25:00,
2013-03-04 03:30:00,46.4,38.9,30.14,NNW,341,3.0,6.0,75,0.00,,CLR,0.00,0.00,VWS V14.01,2013-03-04 08:30:00,
2013-03-04 03:35:00,46.3,39.2,30.14,NNW,341,3.0,7.0,76,0.00,,CLR,0.00,0.00,VWS V14.01,2013-03-04 08:35:00,
2013-03-04 03:40:00,46.2,39.1,30.14,NW,321,5.0,8.0,76,0.00,,CLR,0.00,0.00,VWS V14.01,2013-03-04 08:40:00,
2013-03-04 03:45:00,46.1,39.3,30.14,North,355,7.0,10.0,77,0.00,,CLR,0.00,0.00,VWS V14.01,2013-03-04 08:45:00,
2013-03-04 03:50:00,46.0,39.2,30.14,NW,323,4.0,4.0,77,0.00,,CLR,0.00,0.00,VWS V14.01,2013-03-04 08:50:00,
2013-03-04 03:55:00,45.8,39.0,30.14,NNW,346,4.0,8.0,77,0.00,,CLR,0.00,0.00,VWS V14.01,2013-03-04 08:55:00,
2013-03-04 04:00:00,45.7,39.2,30.14,NNW,336,7.0,7.0,78,0.00,,CLR,0.00,0.00,VWS V14.01,2013-03-04 09:00:00,
2013-03-04 04:05:00,45.6,39.2,30.15,NNW,348,4.0,6.0,78,0.00,,CLR,0.00,0.00,VWS V14.01,2013-03-04 09:05:00,
2013-03-04 04:10:00,45.5,39.0,30.15,NNW,328,14.0,14.0,78,0.00,,CLR,0.00,0.00,VWS V14.01,2013-03-04 09:10:00,
2013-03-04 04:15:00,45.4,39.0,30.15,NNW,338,2.0,5.0,78,0.00,,CLR,0.00,0.00,VWS V14.01,2013-03-04 09:15:00,
2013-03-04 04:20:00,45.3,38.9,30.16,NNW,344,2.0,8.0,78,0.00,,CLR,0.00,0.00,VWS V14.01,2013-03-04 09:20:00,
2013-03-04 04:25:00,45.2,38.8,30.16,NNW,335,3.0,4.0,78,0.00,,CLR,0.00,0.00,VWS V14.01,2013-03-04 09:25:00,
2013-03-04 04:30:00,45.2,38.8,30.16,NNW,340,2.0,13.0,78,0.00,,CLR,0.00,0.00,VWS V14.01,2013-03-04 09:30:00,
2013-03-04 04:35:00,45.1,38.3,30.16,NNW,348,6.0,8.0,77,0.00,,CLR,0.00,0.00,VWS V14.01,2013-03-04 09:35:00,
2013-03-04 04:40:00,45.0,38.2,30.17,NNW,346,4.0,7.0,77,0.00,,CLR,0.00,0.00,VWS V14.01,2013-03-04 09:40:00,
2013-03-04 04:45:00,44.9,38.1,30.17,NW,313,5.0,7.0,77,0.00,,CLR,0.00,0.00,VWS V14.01,2013-03-04 09:45:00,
2013-03-04 04:50:00,44.8,38.0,30.17,NNW,336,3.0,5.0,77,0.00,,CLR,0.00,0.00,VWS V14.01,2013-03-04 09:50:00,
2013-03-04 04:55:00,44.8,38.0,30.17,NW,307,4.0,5.0,77,0.00,,CLR,0.00,0.00,VWS V14.01,2013-03-04 09:55:00,
2013-03-04 05:00:00,44.7,38.3,30.17,NNW,340,2.0,6.0,78,0.00,,CLR,0.00,0.00,VWS V14.01,2013-03-04 10:00:00,
2013-03-04 05:05:00,44.7,38.3,30.17,NNW,341,2.0,5.0,78,0.00,,CLR,0.00,0.00,VWS V14.01,2013-03-04 10:05:00,
2013-03-04 05:10:00,44.6,38.2,30.17,NNW,340,0.0,4.0,78,0.00,,CLR,0.00,0.00,VWS V14.01,2013-03-04 10:10:00,
2013-03-04 05:15:00,44.5,37.8,30.17,NNW,336,4.0,7.0,77,0.00,,CLR,0.00,0.00,VWS V14.01,2013-03-04 10:15:00,
2013-03-04 05:20:00,44.5,37.8,30.18,NW,319,5.0,5.0,77,0.00,,CLR,0.00,0.00,VWS V14.01,2013-03-04 10:20:00,
2013-03-04 05:25:00,44.6,37.5,30.18,NNW,345,2.0,6.0,76,0.00,,CLR,0.00,0.00,VWS V14.01,2013-03-04 10:25:00,
2013-03-04 05:30:00,44.6,37.2,30.18,North,355,4.0,10.0,75,0.00,,CLR,0.00,0.00,VWS V14.01,2013-03-04 10:30:00,
2013-03-04 05:35:00,44.7,37.3,30.19,North,5,4.0,5.0,75,0.00,,CLR,0.00,0.00,VWS V14.01,2013-03-04 10:35:00,
2013-03-04 05:40:00,44.6,37.2,30.19,NNW,346,3.0,5.0,75,0.00,,CLR,0.00,0.00,VWS V14.01,2013-03-04 10:40:00,
2013-03-04 05:45:00,44.7,36.9,30.19,NNW,346,1.0,5.0,74,0.00,,CLR,0.00,0.00,VWS V14.01,2013-03-04 10:45:00,
2013-03-04 05:50:00,44.6,36.8,30.19,North,360,3.0,7.0,74,0.00,,CLR,0.00,0.00,VWS V14.01,2013-03-04 10:50:00,
2013-03-04 05:55:00,44.6,36.8,30.19,North,350,5.0,9.0,74,0.00,,CLR,0.00,0.00,VWS V14.01,2013-03-04 10:55:00,
2013-03-04 06:00:00,44.6,36.8,30.19,NNW,346,4.0,7.0,74,0.00,,CLR,0.00,0.00,VWS V14.01,2013-03-04 11:00:00,
2013-03-04 06:05:00,44.6,36.8,30.19,NNW,342,2.0,7.0,74,0.00,,CLR,0.00,0.00,VWS V14.01,2013-03-04 11:05:00,
2013-03-04 06:10:00,44.7,36.9,30.19,NNW,337,1.0,6.0,74,0.00,,CLR,0.00,0.00,VWS V14.01,2013-03-04 11:10:00,
2013-03-04 06:15:00,44.7,36.6,30.19,North,360,1.0,7.0,73,0.00,,CLR,0.00,0.00,VWS V14.01,2013-03-04 11:15:00,
2013-03-04 06:20:00,44.7,36.9,30.19,NNW,333,5.0,5.0,74,0.00,,CLR,0.00,0.00,VWS V14.01,2013-03-04 11:20:00,
2013-03-04 06:25:00,44.6,36.5,30.20,NNW,340,3.0,3.0,73,0.00,,CLR,0.00,0.00,VWS V14.01,2013-03-04 11:25:00,
2013-03-04 06:30:00,44.5,36.7,30.20,NNW,328,1.0,4.0,74,0.00,,CLR,0.00,0.00,VWS V14.01,2013-03-04 11:30:00,
2013-03-04 06:35:00,44.4,36.7,30.20,NW,325,2.0,4.0,74,0.00,,CLR,0.00,0.00,VWS V14.01,2013-03-04 11:35:00,
2013-03-04 06:40:00,44.3,36.5,30.20,North,355,3.0,5.0,74,0.00,,CLR,0.00,0.00,VWS V14.01,2013-03-04 11:40:00,
2013-03-04 06:45:00,44.2,36.8,30.20,NW,325,4.0,4.0,75,0.00,,CLR,0.00,7.00,VWS V14.01,2013-03-04 11:45:00,
2013-03-04 06:50:00,44.1,36.7,30.21,NNW,328,3.0,6.0,75,0.00,,CLR,0.00,11.00,VWS V14.01,2013-03-04 11:50:00,
2013-03-04 06:55:00,44.1,36.7,30.21,NNW,343,2.0,6.0,75,0.00,,CLR,0.00,14.00,VWS V14.01,2013-03-04 11:55:00,
2013-03-04 07:00:00,44.2,36.8,30.21,North,350,4.0,4.0,75,0.00,,CLR,0.00,18.00,VWS V14.01,2013-03-04 12:00:00,
2013-03-04 07:05:00,44.3,36.9,30.21,NNE,20,1.0,6.0,75,0.00,,CLR,0.00,19.00,VWS V14.01,2013-03-04 12:05:00,
2013-03-04 07:10:00,44.5,37.1,30.21,NNW,342,1.0,4.0,75,0.00,,CLR,0.00,23.00,VWS V14.01,2013-03-04 12:10:00,
2013-03-04 07:15:00,44.6,37.2,30.22,North,355,1.0,5.0,75,0.00,,CLR,0.00,25.00,VWS V14.01,2013-03-04 12:15:00,
2013-03-04 07:20:00,44.8,37.4,30.22,WNW,302,2.0,3.0,75,0.00,,CLR,0.00,39.00,VWS V14.01,2013-03-04 12:20:00,
2013-03-04 07:25:00,45.1,37.3,30.22,North,5,1.0,2.0,74,0.00,,CLR,0.00,39.00,VWS V14.01,2013-03-04 12:25:00,
2013-03-04 07:30:00,45.5,37.7,30.22,NNW,343,0.0,2.0,74,0.00,,CLR,0.00,32.00,VWS V14.01,2013-03-04 12:30:00,
2013-03-04 07:35:00,45.9,37.8,30.23,NNW,343,0.0,3.0,73,0.00,,CLR,0.00,58.00,VWS V14.01,2013-03-04 12:35:00,
2013-03-04 07:40:00,46.3,38.1,30.23,North,355,1.0,3.0,73,0.00,,CLR,0.00,33.00,VWS V14.01,2013-03-04 12:40:00,
2013-03-04 07:45:00,46.7,37.8,30.23,NNW,348,2.0,5.0,71,0.00,,CLR,0.00,35.00,VWS V14.01,2013-03-04 12:45:00,
2013-03-04 07:50:00,47.1,37.8,30.23,North,351,2.0,5.0,70,0.00,,CLR,0.00,37.00,VWS V14.01,2013-03-04 12:50:00,
2013-03-04 07:55:00,47.4,37.8,30.22,North,355,2.0,7.0,69,0.00,,CLR,0.00,44.00,VWS V14.01,2013-03-04 12:55:00,
2013-03-04 08:00:00,47.9,37.9,30.22,North,355,1.0,4.0,68,0.00,,CLR,0.00,69.00,VWS V14.01,2013-03-04 13:00:00,
2013-03-04 08:05:00,48.3,37.9,30.22,NNW,343,3.0,6.0,67,0.00,,CLR,0.00,246.00,VWS V14.01,2013-03-04 13:05:00,
2013-03-04 08:10:00,48.6,38.2,30.22,North,360,2.0,5.0,67,0.00,,CLR,0.00,265.00,VWS V14.01,2013-03-04 13:10:00,
2013-03-04 08:15:00,49.0,38.2,30.22,North,5,4.0,10.0,66,0.00,,CLR,0.00,285.00,VWS V14.01,2013-03-04 13:15:00,
2013-03-04 08:20:00,49.5,38.6,30.22,North,5,3.0,6.0,66,0.00,,CLR,0.00,304.00,VWS V14.01,2013-03-04 13:20:00,
2013-03-04 08:25:00,50.0,38.7,30.22,NNW,342,9.0,10.0,65,0.00,,CLR,0.00,325.00,VWS V14.01,2013-03-04 13:25:00,
2013-03-04 08:30:00,50.4,38.3,30.22,North,360,4.0,11.0,63,0.00,,CLR,0.00,343.00,VWS V14.01,2013-03-04 13:30:00,
2013-03-04 08:35:00,50.9,38.4,30.23,North,355,3.0,10.0,62,0.00,,CLR,0.00,364.00,VWS V14.01,2013-03-04 13:35:00,
2013-03-04 08:40:00,51.5,38.9,30.23,North,350,5.0,8.0,62,0.00,,CLR,0.00,383.00,VWS V14.01,2013-03-04 13:40:00,
2013-03-04 08:45:00,52.0,39.0,30.23,NNW,337,2.0,12.0,61,0.00,,CLR,0.00,403.00,VWS V14.01,2013-03-04 13:45:00,
2013-03-04 08:50:00,52.4,38.9,30.23,North,9,2.0,11.0,60,0.00,,CLR,0.00,422.00,VWS V14.01,2013-03-04 13:50:00,
2013-03-04 08:55:00,52.9,39.0,30.23,NNW,336,3.0,9.0,59,0.00,,CLR,0.00,443.00,VWS V14.01,2013-03-04 13:55:00,
2013-03-04 09:00:00,53.2,38.4,30.23,NNW,333,6.0,12.0,57,0.00,,CLR,0.00,462.00,VWS V14.01,2013-03-04 14:00:00,
2013-03-04 09:05:00,53.5,38.7,30.23,North,349,4.0,7.0,57,0.00,,CLR,0.00,478.00,VWS V14.01,2013-03-04 14:05:00,
2013-03-04 09:10:00,54.0,38.7,30.23,North,355,5.0,10.0,56,0.00,,CLR,0.00,499.00,VWS V14.01,2013-03-04 14:10:00,
2013-03-04 09:15:00,54.4,39.5,30.23,North,355,0.0,4.0,57,0.00,,CLR,0.00,515.00,VWS V14.01,2013-03-04 14:15:00,
2013-03-04 09:20:00,54.8,39.0,30.23,NNW,332,5.0,6.0,55,0.00,,CLR,0.00,534.00,VWS V14.01,2013-03-04 14:20:00,
2013-03-04 09:25:00,55.3,38.5,30.23,North,351,3.0,8.0,53,0.00,,CLR,0.00,552.00,VWS V14.01,2013-03-04 14:25:00,
2013-03-04 09:30:00,55.6,38.3,30.23,North,5,4.0,8.0,52,0.00,,CLR,0.00,571.00,VWS V14.01,2013-03-04 14:30:00,
2013-03-04 09:35:00,55.7,38.4,30.23,NNE,15,4.0,11.0,52,0.00,,CLR,0.00,589.00,VWS V14.01,2013-03-04 14:35:00,
2013-03-04 09:40:00,55.8,38.5,30.23,NNE,12,5.0,6.0,52,0.00,,CLR,0.00,603.00,VWS V14.01,2013-03-04 14:40:00,
2013-03-04 09:45:00,56.2,38.8,30.23,North,5,8.0,10.0,52,0.00,,CLR,0.00,619.00,VWS V14.01,2013-03-04 14:45:00,
2013-03-04 09:50:00,56.6,38.7,30.23,North,355,4.0,8.0,51,0.00,,CLR,0.00,638.00,VWS V14.01,2013-03-04 14:50:00,
2013-03-04 09:55:00,56.8,38.4,30.23,NNW,327,13.0,13.0,50,0.00,,CLR,0.00,652.00,VWS V14.01,2013-03-04 14:55:00,
2013-03-04 10:00:00,56.8,38.4,30.23,North,355,8.0,12.0,50,0.00,,CLR,0.00,668.00,VWS V14.01,2013-03-04 15:00:00,
2013-03-04 10:05:00,57.3,38.8,30.23,NNW,345,3.0,6.0,50,0.00,,CLR,0.00,682.00,VWS V14.01,2013-03-04 15:05:00,
2013-03-04 10:10:00,57.7,38.7,30.23,NNE,17,2.0,3.0,49,0.00,,CLR,0.00,696.00,VWS V14.01,2013-03-04 15:10:00,
2013-03-04 10:15:00,58.2,39.2,30.23,North,5,1.0,5.0,49,0.00,,CLR,0.00,712.00,VWS V14.01,2013-03-04 15:15:00,
2013-03-04 10:20:00,58.7,40.1,30.23,NNW,342,5.0,6.0,50,0.00,,CLR,0.00,722.00,VWS V14.01,2013-03-04 15:20:00,
2013-03-04 10:25:00,59.4,40.2,30.23,NNW,334,11.0,12.0,49,0.00,,CLR,0.00,737.00,VWS V14.01,2013-03-04 15:25:00,
2013-03-04 10:29:00,59.4,39.7,30.23,WNW,298,3.0,5.0,48,0.00,,CLR,0.00,752.00,VWS V14.01,2013-03-04 15:29:00,
2013-03-04 10:30:00,62.1,38.1,30.23,WNW,302,5.0,8.0,41,0.00,,CLR,0.00,875.00,VWS V14.01,2013-03-04 15:30:00,
2013-03-04 10:34:00,59.4,39.7,30.23,NNW,346,3.0,8.0,48,0.00,,CLR,0.00,765.00,VWS V14.01,2013-03-04 15:34:00,
2013-03-04 10:35:00,62.4,39.0,30.23,NNW,345,5.0,8.0,42,0.00,,CLR,0.00,879.00,VWS V14.01,2013-03-04 15:35:00,
2013-03-04 10:39:00,59.5,39.3,30.23,North,349,9.0,11.0,47,0.00,,CLR,0.00,779.00,VWS V14.01,2013-03-04 15:39:00,
2013-03-04 10:40:00,62.8,38.8,30.23,West,261,4.0,6.0,41,0.00,,CLR,0.00,889.00,VWS V14.01,2013-03-04 15:40:00,
2013-03-04 10:44:00,59.3,38.5,30.23,NNW,348,4.0,9.0,46,0.00,,CLR,0.00,789.00,VWS V14.01,2013-03-04 15:44:00,
2013-03-04 10:45:00,63.1,39.0,30.22,NNW,333,7.0,7.0,41,0.00,,CLR,0.00,898.00,VWS V14.01,2013-03-04 15:45:00,
2013-03-04 10:49:00,59.6,38.8,30.23,North,355,2.0,7.0,46,0.00,,CLR,0.00,802.00,VWS V14.01,2013-03-04 15:49:00,
2013-03-04 10:50:00,63.0,39.0,30.22,NNW,338,6.0,9.0,41,0.00,,CLR,0.00,904.00,VWS V14.01,2013-03-04 15:50:00,
2013-03-04 10:54:00,59.7,37.8,30.23,North,360,3.0,4.0,44,0.00,,CLR,0.00,812.00,VWS V14.01,2013-03-04 15:54:00,
2013-03-04 10:55:00,63.4,39.9,30.22,NNW,340,1.0,4.0,42,0.00,,CLR,0.00,907.00,VWS V14.01,2013-03-04 15:55:00,
2013-03-04 10:59:00,60.7,39.3,30.23,North,355,3.0,9.0,45,0.00,,CLR,0.00,824.00,VWS V14.01,2013-03-04 15:59:00,
2013-03-04 11:00:00,63.1,39.0,30.21,NNW,340,5.0,9.0,41,0.00,,CLR,0.00,911.00,VWS V14.01,2013-03-04 16:00:00,
2013-03-04 11:04:00,61.1,38.5,30.23,NW,325,3.0,12.0,43,0.00,,CLR,0.00,833.00,VWS V14.01,2013-03-04 16:04:00,
2013-03-04 11:05:00,63.1,39.7,30.21,NNE,12,2.0,9.0,42,0.00,,CLR,0.00,918.00,VWS V14.01,2013-03-04 16:05:00,
2013-03-04 11:09:00,61.5,39.4,30.23,North,360,3.0,5.0,44,0.00,,CLR,0.00,847.00,VWS V14.01,2013-03-04 16:09:00,
2013-03-04 11:10:00,64.2,38.1,30.21,NW,304,8.0,8.0,38,0.00,,CLR,0.00,921.00,VWS V14.01,2013-03-04 16:10:00,
2013-03-04 11:14:00,61.6,39.5,30.23,NNW,345,4.0,10.0,44,0.00,,CLR,0.00,851.00,VWS V14.01,2013-03-04 16:14:00,
2013-03-04 11:15:00,63.8,38.4,30.20,NNE,26,2.0,2.0,39,0.00,,CLR,0.00,926.00,VWS V14.01,2013-03-04 16:15:00,
2013-03-04 11:19:00,61.7,39.6,30.23,NNW,344,3.0,6.0,44,0.00,,CLR,0.00,861.00,VWS V14.01,2013-03-04 16:19:00,
2013-03-04 11:20:00,64.3,38.8,30.20,North,355,3.0,8.0,39,0.00,,CLR,0.00,926.00,VWS V14.01,2013-03-04 16:20:00,
2013-03-04 11:24:00,62.1,39.4,30.23,NNW,342,6.0,8.0,43,0.00,,CLR,0.00,872.00,VWS V14.01,2013-03-04 16:24:00,
2013-03-04 11:25:00,64.9,40.0,30.20,North,360,4.0,5.0,40,0.00,,CLR,0.00,930.00,VWS V14.01,2013-03-04 16:25:00,
2013-03-04 11:29:00,62.1,38.8,30.23,NW,310,8.0,8.0,42,0.00,,CLR,0.00,875.00,VWS V14.01,2013-03-04 16:29:00,
2013-03-04 11:30:00,64.8,37.9,30.19,NW,318,2.0,6.0,37,0.00,,CLR,0.00,933.00,VWS V14.01,2013-03-04 16:30:00,
2013-03-04 11:34:00,62.4,39.0,30.23,NNW,344,5.0,8.0,42,0.00,,CLR,0.00,879.00,VWS V14.01,2013-03-04 16:34:00,
2013-03-04 11:35:00,64.3,37.5,30.19,NE,51,1.0,4.0,37,0.00,,CLR,0.00,932.00,VWS V14.01,2013-03-04 16:35:00,
2013-03-04 11:39:00,62.8,38.8,30.23,WNW,301,3.0,6.0,41,0.00,,CLR,0.00,889.00,VWS V14.01,2013-03-04 16:39:00,
2013-03-04 11:40:00,65.1,38.2,30.19,North,350,3.0,4.0,37,0.00,,CLR,0.00,933.00,VWS V14.01,2013-03-04 16:40:00,
2013-03-04 11:44:00,63.1,39.0,30.22,North,355,3.0,6.0,41,0.00,,CLR,0.00,898.00,VWS V14.01,2013-03-04 16:44:00,
2013-03-04 11:45:00,65.8,38.1,30.18,NW,325,2.0,6.0,36,0.00,,CLR,0.00,932.00,VWS V14.01,2013-03-04 16:45:00,
2013-03-04 11:49:00,63.0,39.0,30.22,NNW,328,4.0,9.0,41,0.00,,CLR,0.00,904.00,VWS V14.01,2013-03-04 16:49:00,
2013-03-04 11:50:00,65.2,37.6,30.18,SSW,197,1.0,2.0,36,0.00,,CLR,0.00,933.00,VWS V14.01,2013-03-04 16:50:00,
2013-03-04 11:54:00,63.4,39.9,30.22,NNW,340,1.0,4.0,42,0.00,,CLR,0.00,907.00,VWS V14.01,2013-03-04 16:54:00,
2013-03-04 11:55:00,65.1,37.5,30.18,NE,36,2.0,2.0,36,0.00,,CLR,0.00,933.00,VWS V14.01,2013-03-04 16:55:00,
2013-03-04 11:59:00,63.1,39.7,30.21,NNW,339,4.0,9.0,42,0.00,,CLR,0.00,911.00,VWS V14.01,2013-03-04 16:59:00,
2013-03-04 12:00:00,65.6,38.0,30.17,NE,34,1.0,5.0,36,0.00,,CLR,0.00,932.00,VWS V14.01,2013-03-04 17:00:00,
2013-03-04 12:04:00,63.1,39.7,30.21,North,9,3.0,9.0,42,0.00,,CLR,0.00,918.00,VWS V14.01,2013-03-04 17:04:00,
2013-03-04 12:05:00,65.4,37.1,30.17,NE,47,4.0,4.0,35,0.00,,CLR,0.00,932.00,VWS V14.01,2013-03-04 17:05:00,
2013-03-04 12:09:00,64.2,38.1,30.21,NW,313,3.0,6.0,38,0.00,,CLR,0.00,921.00,VWS V14.01,2013-03-04 17:09:00,
2013-03-04 12:10:00,65.4,36.3,30.17,West,279,4.0,7.0,34,0.00,,CLR,0.00,926.00,VWS V14.01,2013-03-04 17:10:00,
2013-03-04 12:14:00,63.8,38.4,30.20,NNE,26,2.0,2.0,39,0.00,,CLR,0.00,926.00,VWS V14.01,2013-03-04 17:14:00,
2013-03-04 12:15:00,66.9,39.1,30.17,NW,317,3.0,3.0,36,0.00,,CLR,0.00,923.00,VWS V14.01,2013-03-04 17:15:00,
2013-03-04 12:19:00,64.3,38.8,30.20,North,351,4.0,8.0,39,0.00,,CLR,0.00,926.00,VWS V14.01,2013-03-04 17:19:00,
2013-03-04 12:20:00,66.9,36.9,30.17,WNW,296,3.0,6.0,33,0.00,,CLR,0.00,921.00,VWS V14.01,2013-03-04 17:20:00,
2013-03-04 12:24:00,64.9,40.0,30.20,North,360,4.0,7.0,40,0.00,,CLR,0.00,930.00,VWS V14.01,2013-03-04 17:24:00,
2013-03-04 12:25:00,66.7,38.9,30.17,NNW,330,6.0,8.0,36,0.00,,CLR,0.00,914.00,VWS V14.01,2013-03-04 17:25:00,
2013-03-04 12:29:00,64.8,37.9,30.19,NW,318,0.0,6.0,37,0.00,,CLR,0.00,933.00,VWS V14.01,2013-03-04 17:29:00,
2013-03-04 12:30:00,67.7,39.8,30.17,NNW,345,3.0,3.0,36,0.00,,CLR,0.00,907.00,VWS V14.01,2013-03-04 17:30:00,
2013-03-04 12:34:00,64.3,37.5,30.19,NE,51,0.0,4.0,37,0.00,,CLR,0.00,932.00,VWS V14.01,2013-03-04 17:34:00,
2013-03-04 12:35:00,66.4,35.7,30.17,SSW,205,1.0,3.0,32,0.00,,CLR,0.00,907.00,VWS V14.01,2013-03-04 17:35:00,
2013-03-04 12:39:00,65.1,40.2,30.19,North,350,3.0,4.0,40,0.00,,CLR,0.00,933.00,VWS V14.01,2013-03-04 17:39:00,
2013-03-04 12:40:00,66.9,36.9,30.17,NNW,340,3.0,3.0,33,0.00,,CLR,0.00,896.00,VWS V14.01,2013-03-04 17:40:00,
2013-03-04 12:44:00,65.8,38.1,30.18,NW,325,3.0,6.0,36,0.00,,CLR,0.00,932.00,VWS V14.01,2013-03-04 17:44:00,
2013-03-04 12:45:00,68.3,35.7,30.16,NNW,331,6.0,7.0,30,0.00,,CLR,0.00,895.00,VWS V14.01,2013-03-04 17:45:00,
2013-03-04 12:49:00,65.3,37.7,30.18,SSW,197,2.0,2.0,36,0.00,,CLR,0.00,933.00,VWS V14.01,2013-03-04 17:49:00,
2013-03-04 12:50:00,68.1,35.5,30.16,NW,326,2.0,4.0,30,0.00,,CLR,0.00,888.00,VWS V14.01,2013-03-04 17:50:00,
2013-03-04 12:54:00,65.1,37.5,30.18,NE,36,1.0,2.0,36,0.00,,CLR,0.00,932.00,VWS V14.01,2013-03-04 17:54:00,
2013-03-04 12:55:00,68.2,35.6,30.16,NNW,342,4.0,7.0,30,0.00,,CLR,0.00,879.00,VWS V14.01,2013-03-04 17:55:00,
2013-03-04 12:59:00,65.6,38.0,30.17,ENE,78,2.0,7.0,36,0.00,,CLR,0.00,928.00,VWS V14.01,2013-03-04 17:59:00,
2013-03-04 13:00:00,67.2,33.0,30.16,WNW,300,4.0,5.0,28,0.00,,CLR,0.00,865.00,VWS V14.01,2013-03-04 18:00:00,
2013-03-04 13:04:00,65.4,37.1,30.17,NE,47,3.0,3.0,35,0.00,,CLR,0.00,932.00,VWS V14.01,2013-03-04 18:04:00,
2013-03-04 13:05:00,66.8,35.2,30.16,North,351,3.0,8.0,31,0.00,,CLR,0.00,858.00,VWS V14.01,2013-03-04 18:05:00,
2013-03-04 13:09:00,65.2,38.3,30.17,WNW,299,4.0,7.0,37,0.00,,CLR,0.00,926.00,VWS V14.01,2013-03-04 18:09:00,
2013-03-04 13:10:00,67.9,36.2,30.15,NW,309,2.0,6.0,31,0.00,,CLR,0.00,851.00,VWS V14.01,2013-03-04 18:10:00,
2013-03-04 13:14:00,66.9,39.1,30.17,NE,34,1.0,4.0,36,0.00,,CLR,0.00,923.00,VWS V14.01,2013-03-04 18:14:00,
2013-03-04 13:15:00,68.0,34.6,30.15,NE,50,0.0,6.0,29,0.00,,CLR,0.00,846.00,VWS V14.01,2013-03-04 18:15:00,
2013-03-04 13:19:00,66.9,36.9,30.17,WNW,296,4.0,6.0,33,0.00,,CLR,0.00,921.00,VWS V14.01,2013-03-04 18:19:00,
2013-03-04 13:20:00,68.2,35.6,30.15,NNW,336,4.0,6.0,30,0.00,,CLR,0.00,833.00,VWS V14.01,2013-03-04 18:20:00,
2013-03-04 13:24:00,66.6,38.8,30.17,NNW,348,5.0,8.0,36,0.00,,CLR,0.00,914.00,VWS V14.01,2013-03-04 18:24:00,
2013-03-04 13:25:00,68.4,34.9,30.15,North,349,3.0,6.0,29,0.00,,CLR,0.00,810.00,VWS V14.01,2013-03-04 18:25:00,
2013-03-04 13:29:00,67.6,37.5,30.17,NNW,346,2.0,3.0,33,0.00,,CLR,0.00,911.00,VWS V14.01,2013-03-04 18:29:00,
2013-03-04 13:30:00,69.0,37.1,30.15,North,355,3.0,6.0,31,0.00,,CLR,0.00,810.00,VWS V14.01,2013-03-04 18:30:00,
2013-03-04 13:34:00,66.5,35.8,30.17,SSW,205,3.0,3.0,32,0.00,,CLR,0.00,907.00,VWS V14.01,2013-03-04 18:34:00,
2013-03-04 13:35:00,69.3,34.8,30.15,NNW,338,9.0,9.0,28,0.00,,CLR,0.00,798.00,VWS V14.01,2013-03-04 18:35:00,
2013-03-04 13:39:00,66.8,36.8,30.17,NNW,342,1.0,3.0,33,0.00,,CLR,0.00,896.00,VWS V14.01,2013-03-04 18:39:00,
2013-03-04 13:40:00,69.5,36.7,30.15,NNW,340,4.0,6.0,30,0.00,,CLR,0.00,788.00,VWS V14.01,2013-03-04 18:40:00,
2013-03-04 13:44:00,68.3,36.5,30.16,NNW,339,3.0,8.0,31,0.00,,CLR,0.00,895.00,VWS V14.01,2013-03-04 18:44:00,
2013-03-04 13:45:00,68.8,34.4,30.15,NNW,344,3.0,6.0,28,0.00,,CLR,0.00,772.00,VWS V14.01,2013-03-04 18:45:00,
2013-03-04 13:49:00,68.0,35.4,30.16,NW,320,2.0,5.0,30,0.00,,CLR,0.00,888.00,VWS V14.01,2013-03-04 18:49:00,
2013-03-04 13:50:00,68.1,34.7,30.15,WSW,250,5.0,5.0,29,0.00,,CLR,0.00,761.00,VWS V14.01,2013-03-04 18:50:00,
2013-03-04 13:54:00,68.2,35.6,30.16,NNW,333,3.0,7.0,30,0.00,,CLR,0.00,879.00,VWS V14.01,2013-03-04 18:54:00,
2013-03-04 13:55:00,68.5,36.7,30.14,North,355,1.0,7.0,31,0.00,,CLR,0.00,747.00,VWS V14.01,2013-03-04 18:55:00,
2013-03-04 13:59:00,67.3,33.1,30.16,NW,325,4.0,4.0,28,0.00,,CLR,0.00,874.00,VWS V14.01,2013-03-04 18:59:00,
2013-03-04 14:00:00,69.7,36.9,30.14,North,349,0.0,7.0,30,0.00,,CLR,0.00,735.00,VWS V14.01,2013-03-04 19:00:00,
2013-03-04 14:04:00,66.7,35.1,30.16,NNW,330,6.0,8.0,31,0.00,,CLR,0.00,860.00,VWS V14.01,2013-03-04 19:04:00,
2013-03-04 14:05:00,69.7,36.9,30.14,NW,306,5.0,6.0,30,0.00,,CLR,0.00,721.00,VWS V14.01,2013-03-04 19:05:00,
2013-03-04 14:09:00,67.9,36.2,30.15,NW,310,6.0,6.0,31,0.00,,CLR,0.00,851.00,VWS V14.01,2013-03-04 19:09:00,
2013-03-04 14:10:00,70.0,37.2,30.14,WNW,300,6.0,7.0,30,0.00,,CLR,0.00,707.00,VWS V14.01,2013-03-04 19:10:00,
2013-03-04 14:14:00,68.1,35.5,30.15,NE,50,1.0,6.0,30,0.00,,CLR,0.00,846.00,VWS V14.01,2013-03-04 19:14:00,
2013-03-04 14:15:00,70.4,35.8,30.14,NNW,338,7.0,7.0,28,0.00,,CLR,0.00,689.00,VWS V14.01,2013-03-04 19:15:00,
2013-03-04 14:19:00,68.1,35.5,30.15,NW,312,5.0,5.0,30,0.00,,CLR,0.00,833.00,VWS V14.01,2013-03-04 19:19:00,
2013-03-04 14:20:00,69.5,35.0,30.14,WNW,292,2.0,3.0,28,0.00,,CLR,0.00,675.00,VWS V14.01,2013-03-04 19:20:00,
2013-03-04 14:24:00,68.4,34.9,30.15,NW,321,5.0,6.0,29,0.00,,CLR,0.00,810.00,VWS V14.01,2013-03-04 19:24:00,
2013-03-04 14:25:00,69.6,36.0,30.14,NNE,22,2.0,6.0,29,0.00,,CLR,0.00,663.00,VWS V14.01,2013-03-04 19:25:00,
2013-03-04 14:29:00,68.9,37.0,30.15,NNW,345,1.0,3.0,31,0.00,,CLR,0.00,816.00,VWS V14.01,2013-03-04 19:29:00,
2013-03-04 14:30:00,69.2,39.7,30.14,ENE,63,3.0,6.0,34,0.00,,CLR,0.00,645.00,VWS V14.01,2013-03-04 19:30:00,
2013-03-04 14:34:00,69.3,34.8,30.15,NW,316,5.0,5.0,28,0.00,,CLR,0.00,805.00,VWS V14.01,2013-03-04 19:34:00,
2013-03-04 14:35:00,68.4,38.2,30.13,NE,47,2.0,3.0,33,0.00,,CLR,0.00,631.00,VWS V14.01,2013-03-04 19:35:00,
2013-03-04 14:39:00,69.5,36.7,30.15,NNW,340,3.0,6.0,30,0.00,,CLR,0.00,789.00,VWS V14.01,2013-03-04 19:39:00,
2013-03-04 14:40:00,68.5,36.7,30.14,North,9,2.0,3.0,31,0.00,,CLR,0.00,610.00,VWS V14.01,2013-03-04 19:40:00,
2013-03-04 14:44:00,68.8,33.5,30.15,NW,326,6.0,6.0,27,0.00,,CLR,0.00,772.00,VWS V14.01,2013-03-04 19:44:00,
2013-03-04 14:45:00,69.0,36.3,30.14,NNW,345,1.0,2.0,30,0.00,,CLR,0.00,589.00,VWS V14.01,2013-03-04 19:45:00,
2013-03-04 14:49:00,68.1,33.8,30.15,West,273,1.0,2.0,28,0.00,,CLR,0.00,761.00,VWS V14.01,2013-03-04 19:49:00,
2013-03-04 14:50:00,69.6,36.8,30.14,NNW,342,1.0,5.0,30,0.00,,CLR,0.00,577.00,VWS V14.01,2013-03-04 19:50:00,
2013-03-04 14:54:00,68.4,35.8,30.14,North,351,1.0,7.0,30,0.00,,CLR,0.00,747.00,VWS V14.01,2013-03-04 19:54:00,
2013-03-04 14:55:00,68.6,35.1,30.14,NNW,347,1.0,2.0,29,0.00,,CLR,0.00,559.00,VWS V14.01,2013-03-04 19:55:00,
2013-03-04 14:59:00,69.7,36.9,30.14,North,349,1.0,7.0,30,0.00,,CLR,0.00,735.00,VWS V14.01,2013-03-04 19:59:00,
2013-03-04 15:00:00,68.3,39.6,30.14,ENE,73,1.0,7.0,35,0.00,,CLR,0.00,540.00,VWS V14.01,2013-03-04 20:00:00,
2013-03-04 15:04:00,69.6,36.8,30.14,NW,304,2.0,4.0,30,0.00,,CLR,0.00,721.00,VWS V14.01,2013-03-04 20:04:00,
2013-03-04 15:05:00,68.2,40.2,30.14,NE,48,4.0,6.0,36,0.00,,CLR,0.00,524.00,VWS V14.01,2013-03-04 20:05:00,
2013-03-04 15:09:00,69.9,37.1,30.14,WNW,298,4.0,5.0,30,0.00,,CLR,0.00,708.00,VWS V14.01,2013-03-04 20:09:00,
2013-03-04 15:10:00,67.4,40.2,30.14,ENE,57,3.0,6.0,37,0.00,,CLR,0.00,504.00,VWS V14.01,2013-03-04 20:10:00,
2013-03-04 15:14:00,70.4,36.7,30.14,WNW,294,1.0,5.0,29,0.00,,CLR,0.00,693.00,VWS V14.01,2013-03-04 20:14:00,
2013-03-04 15:15:00,67.2,40.1,30.14,ENE,62,3.0,5.0,37,0.00,,CLR,0.00,485.00,VWS V14.01,2013-03-04 20:15:00,
2013-03-04 15:19:00,69.5,34.1,30.14,WNW,292,2.0,3.0,27,0.00,,CLR,0.00,675.00,VWS V14.01,2013-03-04 20:19:00,
2013-03-04 15:20:00,66.9,41.2,30.14,ESE,108,3.0,5.0,39,0.00,,CLR,0.00,469.00,VWS V14.01,2013-03-04 20:20:00,
2013-03-04 15:24:00,69.6,36.0,30.14,North,355,2.0,6.0,29,0.00,,CLR,0.00,663.00,VWS V14.01,2013-03-04 20:24:00,
2013-03-04 15:25:00,67.1,40.7,30.14,ESE,121,7.0,7.0,38,0.00,,CLR,0.00,446.00,VWS V14.01,2013-03-04 20:25:00,
2013-03-04 15:29:00,69.3,39.8,30.14,NE,49,3.0,6.0,34,0.00,,CLR,0.00,645.00,VWS V14.01,2013-03-04 20:29:00,
2013-03-04 15:30:00,67.3,40.2,30.14,NE,45,3.0,4.0,37,0.00,,CLR,0.00,432.00,VWS V14.01,2013-03-04 20:30:00,
2013-03-04 15:34:00,68.5,38.3,30.13,NE,47,2.0,4.0,33,0.00,,CLR,0.00,633.00,VWS V14.01,2013-03-04 20:34:00,
2013-03-04 15:35:00,67.4,40.2,30.14,East,101,5.0,6.0,37,0.00,,CLR,0.00,411.00,VWS V14.01,2013-03-04 20:35:00,
2013-03-04 15:39:00,68.5,36.7,30.14,North,9,1.0,3.0,31,0.00,,CLR,0.00,613.00,VWS V14.01,2013-03-04 20:39:00,
2013-03-04 15:40:00,67.0,40.6,30.14,NE,52,1.0,7.0,38,0.00,,CLR,0.00,390.00,VWS V14.01,2013-03-04 20:40:00,
2013-03-04 15:44:00,69.0,36.3,30.14,North,360,2.0,3.0,30,0.00,,CLR,0.00,592.00,VWS V14.01,2013-03-04 20:44:00,
2013-03-04 15:45:00,66.9,41.8,30.14,East,98,2.0,5.0,40,0.00,,CLR,0.00,371.00,VWS V14.01,2013-03-04 20:45:00,
2013-03-04 15:49:00,69.6,36.8,30.14,NNW,342,3.0,6.0,30,0.00,,CLR,0.00,578.00,VWS V14.01,2013-03-04 20:49:00,
2013-03-04 15:50:00,67.1,40.7,30.14,East,86,3.0,10.0,38,0.00,,CLR,0.00,352.00,VWS V14.01,2013-03-04 20:50:00,
2013-03-04 15:54:00,68.8,35.3,30.14,NNW,344,1.0,2.0,29,0.00,,CLR,0.00,559.00,VWS V14.01,2013-03-04 20:54:00,
2013-03-04 15:55:00,66.9,40.5,30.14,ENE,63,3.0,5.0,38,0.00,,CLR,0.00,330.00,VWS V14.01,2013-03-04 20:55:00,
2013-03-04 15:59:00,68.3,39.6,30.14,ENE,72,3.0,7.0,35,0.00,,CLR,0.00,540.00,VWS V14.01,2013-03-04 20:59:00,
2013-03-04 16:00:00,66.6,40.9,30.14,NE,46,2.0,5.0,39,0.00,,CLR,0.00,313.00,VWS V14.01,2013-03-04 21:00:00,
2013-03-04 16:04:00,68.2,40.2,30.14,ENE,69,5.0,6.0,36,0.00,,CLR,0.00,524.00,VWS V14.01,2013-03-04 21:04:00,
2013-03-04 16:05:00,66.3,40.6,30.14,NNE,32,4.0,6.0,39,0.00,,CLR,0.00,292.00,VWS V14.01,2013-03-04 21:05:00,
2013-03-04 16:09:00,67.4,40.2,30.14,ENE,66,3.0,6.0,37,0.00,,CLR,0.00,508.00,VWS V14.01,2013-03-04 21:09:00,
2013-03-04 16:10:00,66.1,40.5,30.14,ENE,57,5.0,10.0,39,0.00,,CLR,0.00,269.00,VWS V14.01,2013-03-04 21:10:00,
2013-03-04 16:14:00,67.2,40.1,30.14,SE,129,2.0,5.0,37,0.00,,CLR,0.00,489.00,VWS V14.01,2013-03-04 21:14:00,
2013-03-04 16:15:00,65.8,40.2,30.14,ENE,61,7.0,7.0,39,0.00,,CLR,0.00,251.00,VWS V14.01,2013-03-04 21:15:00,
2013-03-04 16:19:00,66.9,41.2,30.14,East,101,2.0,5.0,39,0.00,,CLR,0.00,469.00,VWS V14.01,2013-03-04 21:19:00,
2013-03-04 16:20:00,65.7,40.7,30.14,ENE,72,7.0,7.0,40,0.00,,CLR,0.00,229.00,VWS V14.01,2013-03-04 21:20:00,
2013-03-04 16:24:00,67.1,40.7,30.14,SSE,149,6.0,6.0,38,0.00,,CLR,0.00,452.00,VWS V14.01,2013-03-04 21:24:00,
2013-03-04 16:25:00,65.4,41.1,30.14,ENE,57,7.0,7.0,41,0.00,,CLR,0.00,206.00,VWS V14.01,2013-03-04 21:25:00,
2013-03-04 16:29:00,67.3,41.5,30.14,East,86,3.0,5.0,39,0.00,,CLR,0.00,432.00,VWS V14.01,2013-03-04 21:29:00,
2013-03-04 16:30:00,65.2,40.3,30.15,NE,48,4.0,5.0,40,0.00,,CLR,0.00,181.00,VWS V14.01,2013-03-04 21:30:00,
2013-03-04 16:34:00,67.5,40.3,30.14,East,82,6.0,8.0,37,0.00,,CLR,0.00,411.00,VWS V14.01,2013-03-04 21:34:00,
2013-03-04 16:35:00,65.0,40.8,30.15,East,82,2.0,8.0,41,0.00,,CLR,0.00,162.00,VWS V14.01,2013-03-04 21:35:00,
2013-03-04 16:39:00,67.0,40.6,30.14,NE,52,2.0,9.0,38,0.00,,CLR,0.00,390.00,VWS V14.01,2013-03-04 21:39:00,
2013-03-04 16:40:00,64.7,40.5,30.15,NE,45,1.0,7.0,41,0.00,,CLR,0.00,137.00,VWS V14.01,2013-03-04 21:40:00,
2013-03-04 16:44:00,66.9,41.8,30.14,NNE,32,5.0,5.0,40,0.00,,CLR,0.00,373.00,VWS V14.01,2013-03-04 21:44:00,
2013-03-04 16:45:00,64.5,40.9,30.15,NE,54,7.0,7.0,42,0.00,,CLR,0.00,113.00,VWS V14.01,2013-03-04 21:45:00,
2013-03-04 16:49:00,67.1,40.7,30.14,East,96,7.0,10.0,38,0.00,,CLR,0.00,355.00,VWS V14.01,2013-03-04 21:49:00,
2013-03-04 16:50:00,64.3,41.3,30.15,ENE,59,8.0,9.0,43,0.00,,CLR,0.00,91.00,VWS V14.01,2013-03-04 21:50:00,
2013-03-04 16:54:00,67.0,40.6,30.14,NE,47,1.0,3.0,38,0.00,,CLR,0.00,334.00,VWS V14.01,2013-03-04 21:54:00,
2013-03-04 16:55:00,64.0,41.7,30.15,NE,49,4.0,7.0,44,0.00,,CLR,0.00,70.00,VWS V14.01,2013-03-04 21:55:00,
2013-03-04 16:59:00,66.7,40.3,30.14,NE,49,4.0,5.0,38,0.00,,CLR,0.00,313.00,VWS V14.01,2013-03-04 21:59:00,
2013-03-04 17:00:00,63.8,42.7,30.15,ENE,59,4.0,7.0,46,0.00,,CLR,0.00,53.00,VWS V14.01,2013-03-04 22:00:00,
2013-03-04 17:04:00,66.3,40.6,30.14,NNE,28,2.0,6.0,39,0.00,,CLR,0.00,292.00,VWS V14.01,2013-03-04 22:04:00,
2013-03-04 17:05:00,63.4,42.8,30.15,ENE,60,2.0,5.0,47,0.00,,CLR,0.00,35.00,VWS V14.01,2013-03-04 22:05:00,
2013-03-04 17:09:00,66.1,40.5,30.14,East,80,3.0,10.0,39,0.00,,CLR,0.00,269.00,VWS V14.01,2013-03-04 22:09:00,
2013-03-04 17:10:00,63.1,43.1,30.16,NE,55,5.0,6.0,48,0.00,,CLR,0.00,23.00,VWS V14.01,2013-03-04 22:10:00,
2013-03-04 17:14:00,65.9,40.3,30.14,NE,42,3.0,6.0,39,0.00,,CLR,0.00,255.00,VWS V14.01,2013-03-04 22:14:00,
2013-03-04 17:15:00,62.9,43.5,30.16,NE,50,4.0,7.0,49,0.00,,CLR,0.00,12.00,VWS V14.01,2013-03-04 22:15:00,
2013-03-04 17:19:00,65.6,40.7,30.14,ENE,57,1.0,4.0,40,0.00,,CLR,0.00,234.00,VWS V14.01,2013-03-04 22:19:00,
2013-03-04 17:20:00,62.7,43.8,30.16,NE,51,6.0,8.0,50,0.00,,CLR,0.00,9.00,VWS V14.01,2013-03-04 22:20:00,
2013-03-04 17:24:00,65.4,41.1,30.14,ENE,71,3.0,6.0,41,0.00,,CLR,0.00,211.00,VWS V14.01,2013-03-04 22:24:00,
2013-03-04 17:25:00,62.4,44.0,30.16,ENE,61,4.0,7.0,51,0.00,,CLR,0.00,5.00,VWS V14.01,2013-03-04 22:25:00,
2013-03-04 17:29:00,65.3,41.0,30.15,ENE,65,2.0,5.0,41,0.00,,CLR,0.00,186.00,VWS V14.01,2013-03-04 22:29:00,
2013-03-04 17:30:00,62.2,43.9,30.16,NE,49,6.0,7.0,51,0.00,,CLR,0.00,0.00,VWS V14.01,2013-03-04 22:30:00,
2013-03-04 17:34:00,65.0,40.8,30.15,NE,47,5.0,8.0,41,0.00,,CLR,0.00,162.00,VWS V14.01,2013-03-04 22:34:00,
2013-03-04 17:35:00,62.0,44.7,30.16,ENE,63,2.0,7.0,53,0.00,,CLR,0.00,0.00,VWS V14.01,2013-03-04 22:35:00,
2013-03-04 17:39:00,64.7,40.5,30.15,ENE,66,4.0,7.0,41,0.00,,CLR,0.00,137.00,VWS V14.01,2013-03-04 22:39:00,
2013-03-04 17:40:00,61.8,44.5,30.16,NE,55,4.0,4.0,53,0.00,,CLR,0.00,0.00,VWS V14.01,2013-03-04 22:40:00,
2013-03-04 17:44:00,64.5,40.9,30.15,ENE,61,3.0,6.0,42,0.00,,CLR,0.00,113.00,VWS V14.01,2013-03-04 22:44:00,
2013-03-04 17:45:00,61.6,44.8,30.16,ENE,68,2.0,3.0,54,0.00,,CLR,0.00,0.00,VWS V14.01,2013-03-04 22:45:00,
2013-03-04 17:49:00,64.3,41.3,30.15,ENE,58,9.0,9.0,43,0.00,,CLR,0.00,95.00,VWS V14.01,2013-03-04 22:49:00,
2013-03-04 17:50:00,61.4,44.6,30.16,NE,56,3.0,4.0,54,0.00,,CLR,0.00,0.00,VWS V14.01,2013-03-04 22:50:00,
2013-03-04 17:54:00,64.1,41.8,30.15,ENE,61,5.0,8.0,44,0.00,,CLR,0.00,74.00,VWS V14.01,2013-03-04 22:54:00,
2013-03-04 17:55:00,61.2,44.4,30.17,ENE,66,2.0,3.0,54,0.00,,CLR,0.00,0.00,VWS V14.01,2013-03-04 22:55:00,
2013-03-04 17:59:00,63.8,42.1,30.15,NE,42,5.0,7.0,45,0.00,,CLR,0.00,54.00,VWS V14.01,2013-03-04 22:59:00,
2013-03-04 18:00:00,61.0,44.7,30.16,ENE,63,3.0,3.0,55,0.00,,CLR,0.00,0.00,VWS V14.01,2013-03-04 23:00:00,
2013-03-04 18:04:00,63.5,42.9,30.15,ENE,57,4.0,5.0,47,0.00,,CLR,0.00,37.00,VWS V14.01,2013-03-04 23:04:00,
2013-03-04 18:05:00,60.9,44.6,30.17,ENE,60,1.0,2.0,55,0.00,,CLR,0.00,0.00,VWS V14.01,2013-03-04 23:05:00,
2013-03-04 18:09:00,63.1,43.1,30.16,NE,47,5.0,5.0,48,0.00,,CLR,0.00,23.00,VWS V14.01,2013-03-04 23:09:00,
2013-03-04 18:10:00,60.7,44.9,30.17,ENE,60,2.0,3.0,56,0.00,,CLR,0.00,0.00,VWS V14.01,2013-03-04 23:10:00,
2013-03-04 18:14:00,63.0,43.6,30.16,ENE,65,5.0,7.0,49,0.00,,CLR,0.00,12.00,VWS V14.01,2013-03-04 23:14:00,
2013-03-04 18:15:00,60.4,44.7,30.17,NE,46,3.0,4.0,56,0.00,,CLR,0.00,0.00,VWS V14.01,2013-03-04 23:15:00,
2013-03-04 18:19:00,62.7,43.8,30.16,NE,42,5.0,7.0,50,0.00,,CLR,0.00,9.00,VWS V14.01,2013-03-04 23:19:00,
2013-03-04 18:20:00,60.3,45.0,30.17,NE,51,2.0,2.0,57,0.00,,CLR,0.00,0.00,VWS V14.01,2013-03-04 23:20:00,
2013-03-04 18:24:00,62.4,44.0,30.16,NE,49,5.0,7.0,51,0.00,,CLR,0.00,5.00,VWS V14.01,2013-03-04 23:24:00,
2013-03-04 18:25:00,60.1,44.8,30.17,ENE,67,0.0,2.0,57,0.00,,CLR,0.00,0.00,VWS V14.01,2013-03-04 23:25:00,
2013-03-04 18:29:00,62.2,43.9,30.16,NE,50,6.0,7.0,51,0.00,,CLR,0.00,0.00,VWS V14.01,2013-03-04 23:29:00,
2013-03-04 18:30:00,60.0,44.7,30.17,ENE,67,0.0,0.0,57,0.00,,CLR,0.00,0.00,VWS V14.01,2013-03-04 23:30:00,
2013-03-04 18:34:00,62.0,44.2,30.16,ENE,63,2.0,7.0,52,0.00,,CLR,0.00,0.00,VWS V14.01,2013-03-04 23:34:00,
2013-03-04 18:35:00,59.8,45.0,30.17,ENE,67,0.0,2.0,58,0.00,,CLR,0.00,0.00,VWS V14.01,2013-03-04 23:35:00,
2013-03-04 18:39:00,61.8,44.5,30.16,ENE,67,2.0,3.0,53,0.00,,CLR,0.00,0.00,VWS V14.01,2013-03-04 23:39:00,
2013-03-04 18:40:00,59.7,44.9,30.17,ENE,67,1.0,1.0,58,0.00,,CLR,0.00,0.00,VWS V14.01,2013-03-04 23:40:00,
2013-03-04 18:44:00,61.6,44.8,30.16,ENE,68,2.0,3.0,54,0.00,,CLR,0.00,0.00,VWS V14.01,2013-03-04 23:44:00,
2013-03-04 18:45:00,59.3,44.5,30.17,ENE,67,0.0,0.0,58,0.00,,CLR,0.00,0.00,VWS V14.01,2013-03-04 23:45:00,
2013-03-04 18:49:00,61.4,44.6,30.16,ENE,64,3.0,4.0,54,0.00,,CLR,0.00,0.00,VWS V14.01,2013-03-04 23:49:00,
2013-03-04 18:50:00,58.9,44.6,30.17,ENE,67,0.0,0.0,59,0.00,,CLR,0.00,0.00,VWS V14.01,2013-03-04 23:50:00,
2013-03-04 18:54:00,61.2,44.4,30.17,ENE,66,1.0,3.0,54,0.00,,CLR,0.00,0.00,VWS V14.01,2013-03-04 23:54:00,
2013-03-04 18:55:00,58.4,44.6,30.18,ENE,67,0.0,0.0,60,0.00,,CLR,0.00,0.00,VWS V14.01,2013-03-04 23:55:00,
2013-03-04 18:59:00,61.1,44.8,30.16,ENE,63,2.0,2.0,55,0.00,,CLR,0.00,0.00,VWS V14.01,2013-03-04 23:59:00,
2013-03-04 19:00:00,57.8,44.5,30.18,ENE,67,0.0,0.0,61,0.00,,CLR,0.00,0.00,VWS V14.01,2013-03-05 00:00:00,
2013-03-04 19:04:00,60.9,44.6,30.17,ENE,60,1.0,2.0,55,0.00,,CLR,0.00,0.00,VWS V14.01,2013-03-05 00:04:00,
2013-03-04 19:05:00,57.3,44.8,30.18,ENE,67,0.0,0.0,63,0.00,,CLR,0.00,0.00,VWS V14.01,2013-03-05 00:05:00,
2013-03-04 19:09:00,60.7,44.9,30.17,ENE,60,3.0,3.0,56,0.00,,CLR,0.00,0.00,VWS V14.01,2013-03-05 00:09:00,
2013-03-04 19:10:00,57.0,45.0,30.18,ENE,67,0.0,1.0,64,0.00,,CLR,0.00,0.00,VWS V14.01,2013-03-05 00:10:00,
2013-03-04 19:14:00,60.5,44.7,30.17,NE,44,2.0,4.0,56,0.00,,CLR,0.00,0.00,VWS V14.01,2013-03-05 00:14:00,
2013-03-04 19:15:00,56.7,44.7,30.18,ENE,67,0.0,0.0,64,0.00,,CLR,0.00,0.00,VWS V14.01,2013-03-05 00:15:00,
2013-03-04 19:19:00,60.3,45.0,30.17,NE,51,2.0,2.0,57,0.00,,CLR,0.00,0.00,VWS V14.01,2013-03-05 00:19:00,
2013-03-04 19:20:00,56.4,44.4,30.19,ENE,67,0.0,0.0,64,0.00,,CLR,0.00,0.00,VWS V14.01,2013-03-05 00:20:00,
2013-03-04 19:24:00,60.1,44.8,30.17,ENE,67,2.0,2.0,57,0.00,,CLR,0.00,0.00,VWS V14.01,2013-03-05 00:24:00,
2013-03-04 19:25:00,56.0,44.4,30.19,ENE,67,0.0,0.0,65,0.00,,CLR,0.00,0.00,VWS V14.01,2013-03-05 00:25:00,
2013-03-04 19:29:00,60.0,44.7,30.17,ENE,67,0.0,0.0,57,0.00,,CLR,0.00,0.00,VWS V14.01,2013-03-05 00:29:00,
2013-03-04 19:30:00,55.9,44.7,30.18,ENE,67,0.0,0.0,66,0.00,,CLR,0.00,0.00,VWS V14.01,2013-03-05 00:30:00,
2013-03-04 19:34:00,59.9,45.1,30.17,ENE,67,0.0,3.0,58,0.00,,CLR,0.00,0.00,VWS V14.01,2013-03-05 00:34:00,
2013-03-04 19:35:00,55.7,44.5,30.19,ENE,67,0.0,0.0,66,0.00,,CLR,0.00,0.00,VWS V14.01,2013-03-05 00:35:00,
2013-03-04 19:39:00,59.7,44.9,30.17,ENE,67,1.0,1.0,58,0.00,,CLR,0.00,0.00,VWS V14.01,2013-03-05 00:39:00,
2013-03-04 19:40:00,55.4,44.2,30.19,ENE,67,0.0,0.0,66,0.00,,CLR,0.00,0.00,VWS V14.01,2013-03-05 00:40:00,
2013-03-04 19:44:00,59.4,44.6,30.17,ENE,67,0.0,0.0,58,0.00,,CLR,0.00,0.00,VWS V14.01,2013-03-05 00:44:00,
2013-03-04 19:45:00,55.2,44.5,30.19,ENE,67,0.0,0.0,67,0.00,,CLR,0.00,0.00,VWS V14.01,2013-03-05 00:45:00,
2013-03-04 19:49:00,59.0,44.7,30.17,ENE,67,0.0,0.0,59,0.00,,CLR,0.00,0.00,VWS V14.01,2013-03-05 00:49:00,
2013-03-04 19:50:00,55.1,44.3,30.19,ENE,67,0.0,0.0,67,0.00,,CLR,0.00,0.00,VWS V14.01,2013-03-05 00:50:00,
2013-03-04 19:54:00,58.4,44.6,30.18,ENE,67,0.0,0.0,60,0.00,,CLR,0.00,0.00,VWS V14.01,2013-03-05 00:54:00,
2013-03-04 19:55:00,54.8,44.1,30.19,ENE,67,0.0,0.0,67,0.00,,CLR,0.00,0.00,VWS V14.01,2013-03-05 00:55:00,
2013-03-04 19:59:00,57.9,44.5,30.18,ENE,67,0.0,0.0,61,0.00,,CLR,0.00,0.00,VWS V14.01,2013-03-05 00:59:00,
2013-03-04 20:00:00,54.6,43.9,30.19,ENE,67,0.0,0.0,67,0.00,,CLR,0.00,0.00,VWS V14.01,2013-03-05 01:00:00,
2013-03-04 20:04:00,57.4,44.9,30.18,ENE,67,0.0,0.0,63,0.00,,CLR,0.00,0.00,VWS V14.01,2013-03-05 01:04:00,
2013-03-04 20:05:00,54.4,43.7,30.20,ENE,67,0.0,0.0,67,0.00,,CLR,0.00,0.00,VWS V14.01,2013-03-05 01:05:00,
2013-03-04 20:09:00,57.0,45.0,30.18,ENE,67,0.0,1.0,64,0.00,,CLR,0.00,0.00,VWS V14.01,2013-03-05 01:09:00,
2013-03-04 20:10:00,54.1,43.8,30.20,ENE,67,0.0,0.0,68,0.00,,CLR,0.00,0.00,VWS V14.01,2013-03-05 01:10:00,
2013-03-04 20:14:00,56.8,44.8,30.18,ENE,67,0.0,0.0,64,0.00,,CLR,0.00,0.00,VWS V14.01,2013-03-05 01:14:00,
2013-03-04 20:15:00,53.9,43.6,30.20,ENE,67,0.0,0.0,68,0.00,,CLR,0.00,0.00,VWS V14.01,2013-03-05 01:15:00,
2013-03-04 20:19:00,56.5,44.5,30.19,ENE,67,0.0,0.0,64,0.00,,CLR,0.00,0.00,VWS V14.01,2013-03-05 01:19:00,
2013-03-04 20:20:00,53.7,43.8,30.20,ENE,67,0.0,0.0,69,0.00,,CLR,0.00,0.00,VWS V14.01,2013-03-05 01:20:00,
2013-03-04 20:24:00,56.1,44.5,30.19,ENE,67,0.0,0.0,65,0.00,,CLR,0.00,0.00,VWS V14.01,2013-03-05 01:24:00,
2013-03-04 20:25:00,53.5,44.0,30.20,ENE,67,0.0,0.0,70,0.00,,CLR,0.00,0.00,VWS V14.01,2013-03-05 01:25:00,
2013-03-04 20:29:00,56.0,44.8,30.18,ENE,67,0.0,0.0,66,0.00,,CLR,0.00,0.00,VWS V14.01,2013-03-05 01:29:00,
2013-03-04 20:30:00,53.2,43.7,30.20,ENE,67,0.0,0.0,70,0.00,,CLR,0.00,0.00,VWS V14.01,2013-03-05 01:30:00,
2013-03-04 20:34:00,55.7,44.5,30.19,ENE,67,0.0,0.0,66,0.00,,CLR,0.00,0.00,VWS V14.01,2013-03-05 01:34:00,
2013-03-04 20:35:00,53.0,43.9,30.20,ENE,67,0.0,0.0,71,0.00,,CLR,0.00,0.00,VWS V14.01,2013-03-05 01:35:00,
2013-03-04 20:39:00,55.4,44.2,30.19,ENE,67,0.0,0.0,66,0.00,,CLR,0.00,0.00,VWS V14.01,2013-03-05 01:39:00,
2013-03-04 20:40:00,52.9,44.1,30.20,ENE,67,0.0,0.0,72,0.00,,CLR,0.00,0.00,VWS V14.01,2013-03-05 01:40:00,
2013-03-04 20:44:00,55.2,44.5,30.19,ENE,67,0.0,0.0,67,0.00,,CLR,0.00,0.00,VWS V14.01,2013-03-05 01:44:00,
2013-03-04 20:45:00,52.7,43.9,30.20,ENE,67,0.0,0.0,72,0.00,,CLR,0.00,0.00,VWS V14.01,2013-03-05 01:45:00,
2013-03-04 20:49:00,55.1,44.3,30.19,ENE,67,0.0,0.0,67,0.00,,CLR,0.00,0.00,VWS V14.01,2013-03-05 01:49:00,
2013-03-04 20:50:00,52.6,44.2,30.20,ENE,67,0.0,0.0,73,0.00,,CLR,0.00,0.00,VWS V14.01,2013-03-05 01:50:00,
2013-03-04 20:54:00,54.8,44.1,30.19,ENE,67,0.0,0.0,67,0.00,,CLR,0.00,0.00,VWS V14.01,2013-03-05 01:54:00,
2013-03-04 20:55:00,52.5,44.1,30.20,ENE,67,0.0,0.0,73,0.00,,CLR,0.00,0.00,VWS V14.01,2013-03-05 01:55:00,
2013-03-04 20:59:00,54.7,44.4,30.19,ENE,67,0.0,0.0,68,0.00,,CLR,0.00,0.00,VWS V14.01,2013-03-05 01:59:00,
2013-03-04 21:00:00,52.3,43.9,30.20,ENE,67,0.0,0.0,73,0.00,,CLR,0.00,0.00,VWS V14.01,2013-03-05 02:00:00,
2013-03-04 21:04:00,54.4,44.1,30.20,ENE,67,0.0,0.0,68,0.00,,CLR,0.00,0.00,VWS V14.01,2013-03-05 02:04:00,
2013-03-04 21:05:00,52.1,44.1,30.20,ENE,67,0.0,0.0,74,0.00,,CLR,0.00,0.00,VWS V14.01,2013-03-05 02:05:00,
2013-03-04 21:09:00,54.2,43.9,30.20,ENE,67,0.0,0.0,68,0.00,,CLR,0.00,0.00,VWS V14.01,2013-03-05 02:09:00,
2013-03-04 21:10:00,52.0,44.0,30.20,ENE,67,0.0,0.0,74,0.00,,CLR,0.00,0.00,VWS V14.01,2013-03-05 02:10:00,
2013-03-04 21:14:00,53.9,43.6,30.20,ENE,67,0.0,0.0,68,0.00,,CLR,0.00,0.00,VWS V14.01,2013-03-05 02:14:00,
2013-03-04 21:15:00,51.9,43.9,30.20,ENE,67,0.0,0.0,74,0.00,,CLR,0.00,0.00,VWS V14.01,2013-03-05 02:15:00,
2013-03-04 21:19:00,53.7,43.8,30.20,ENE,67,0.0,0.0,69,0.00,,CLR,0.00,0.00,VWS V14.01,2013-03-05 02:19:00,
2013-03-04 21:20:00,51.8,44.1,30.20,ENE,67,0.0,0.0,75,0.00,,CLR,0.00,0.00,VWS V14.01,2013-03-05 02:20:00,
2013-03-04 21:24:00,53.5,43.6,30.20,ENE,67,0.0,0.0,69,0.00,,CLR,0.00,0.00,VWS V14.01,2013-03-05 02:24:00,
2013-03-04 21:25:00,51.7,44.0,30.20,ENE,67,0.0,0.0,75,0.00,,CLR,0.00,0.00,VWS V14.01,2013-03-05 02:25:00,
2013-03-04 21:29:00,53.3,43.8,30.20,ENE,67,0.0,0.0,70,0.00,,CLR,0.00,0.00,VWS V14.01,2013-03-05 02:29:00,
2013-03-04 21:30:00,51.6,44.3,30.19,ENE,67,0.0,0.0,76,0.00,,CLR,0.00,0.00,VWS V14.01,2013-03-05 02:30:00,
2013-03-04 21:34:00,53.1,44.0,30.20,ENE,67,0.0,0.0,71,0.00,,CLR,0.00,0.00,VWS V14.01,2013-03-05 02:34:00,
2013-03-04 21:35:00,51.5,44.2,30.20,ENE,67,0.0,0.0,76,0.00,,CLR,0.00,0.00,VWS V14.01,2013-03-05 02:35:00,
2013-03-04 21:39:00,52.9,44.1,30.20,ENE,67,0.0,0.0,72,0.00,,CLR,0.00,0.00,VWS V14.01,2013-03-05 02:39:00,
2013-03-04 21:40:00,51.4,44.1,30.20,ENE,67,0.0,0.0,76,0.00,,CLR,0.00,0.00,VWS V14.01,2013-03-05 02:40:00,
2013-03-04 21:44:00,52.8,44.0,30.20,ENE,67,0.0,0.0,72,0.00,,CLR,0.00,0.00,VWS V14.01,2013-03-05 02:44:00,
2013-03-04 21:45:00,51.4,44.4,30.19,ENE,67,0.0,0.0,77,0.00,,CLR,0.00,0.00,VWS V14.01,2013-03-05 02:45:00,
2013-03-04 21:49:00,52.6,44.2,30.20,ENE,67,0.0,0.0,73,0.00,,CLR,0.00,0.00,VWS V14.01,2013-03-05 02:49:00,
2013-03-04 21:50:00,51.3,44.3,30.19,ENE,67,0.0,0.0,77,0.00,,CLR,0.00,0.00,VWS V14.01,2013-03-05 02:50:00,
2013-03-04 21:54:00,52.5,44.1,30.20,ENE,67,0.0,0.0,73,0.00,,CLR,0.00,0.00,VWS V14.01,2013-03-05 02:54:00,
2013-03-04 21:55:00,51.2,44.2,30.19,ENE,67,0.0,0.0,77,0.00,,CLR,0.00,0.00,VWS V14.01,2013-03-05 02:55:00,
2013-03-04 21:59:00,52.3,43.9,30.20,ENE,67,0.0,0.0,73,0.00,,CLR,0.00,0.00,VWS V14.01,2013-03-05 02:59:00,
2013-03-04 22:00:00,51.1,44.5,30.20,ENE,67,0.0,0.0,78,0.00,,CLR,0.00,0.00,VWS V14.01,2013-03-05 03:00:00,
2013-03-04 22:04:00,52.1,44.1,30.20,ENE,67,0.0,0.0,74,0.00,,CLR,0.00,0.00,VWS V14.01,2013-03-05 03:04:00,
2013-03-04 22:05:00,51.0,44.4,30.19,ENE,67,0.0,0.0,78,0.00,,CLR,0.00,0.00,VWS V14.01,2013-03-05 03:05:00,
2013-03-04 22:09:00,52.0,44.0,30.20,ENE,67,0.0,0.0,74,0.00,,CLR,0.00,0.00,VWS V14.01,2013-03-05 03:09:00,
2013-03-04 22:10:00,51.1,44.5,30.19,ENE,67,0.0,0.0,78,0.00,,CLR,0.00,0.00,VWS V14.01,2013-03-05 03:10:00,
2013-03-04 22:14:00,51.9,44.2,30.20,ENE,67,0.0,0.0,75,0.00,,CLR,0.00,0.00,VWS V14.01,2013-03-05 03:14:00,
2013-03-04 22:15:00,51.0,44.7,30.20,ENE,67,0.0,0.0,79,0.00,,CLR,0.00,0.00,VWS V14.01,2013-03-05 03:15:00,
2013-03-04 22:19:00,51.8,44.1,30.20,ENE,67,0.0,0.0,75,0.00,,CLR,0.00,0.00,VWS V14.01,2013-03-05 03:19:00,
2013-03-04 22:20:00,51.0,44.7,30.19,ENE,67,0.0,0.0,79,0.00,,CLR,0.00,0.00,VWS V14.01,2013-03-05 03:20:00,
2013-03-04 22:24:00,51.7,44.0,30.20,ENE,67,0.0,0.0,75,0.00,,CLR,0.00,0.00,VWS V14.01,2013-03-05 03:24:00,
2013-03-04 22:25:00,50.8,44.5,30.19,ENE,67,0.0,0.0,79,0.00,,CLR,0.00,0.00,VWS V14.01,2013-03-05 03:25:00,
2013-03-04 22:29:00,51.6,44.0,30.20,ENE,67,0.0,0.0,75,0.00,,CLR,0.00,0.00,VWS V14.01,2013-03-05 03:29:00,
2013-03-04 22:30:00,50.7,44.8,30.19,ENE,67,0.0,0.0,80,0.00,,CLR,0.00,0.00,VWS V14.01,2013-03-05 03:30:00,
2013-03-04 22:34:00,51.5,44.2,30.20,ENE,67,0.0,0.0,76,0.00,,CLR,0.00,0.00,VWS V14.01,2013-03-05 03:34:00,
2013-03-04 22:35:00,50.6,44.7,30.19,ENE,67,0.0,0.0,80,0.00,,CLR,0.00,0.00,VWS V14.01,2013-03-05 03:35:00,
2013-03-04 22:39:00,51.4,44.1,30.20,ENE,67,0.0,0.0,76,0.00,,CLR,0.00,0.00,VWS V14.01,2013-03-05 03:39:00,
2013-03-04 22:40:00,50.6,44.7,30.19,ENE,67,0.0,0.0,80,0.00,,CLR,0.00,0.00,VWS V14.01,2013-03-05 03:40:00,
2013-03-04 22:44:00,51.3,44.3,30.19,ENE,67,0.0,0.0,77,0.00,,CLR,0.00,0.00,VWS V14.01,2013-03-05 03:44:00,
2013-03-04 22:45:00,50.6,45.0,30.19,ENE,67,1.0,1.0,81,0.00,,CLR,0.00,0.00,VWS V14.01,2013-03-05 03:45:00,
2013-03-04 22:49:00,51.3,44.3,30.19,ENE,67,0.0,0.0,77,0.00,,CLR,0.00,0.00,VWS V14.01,2013-03-05 03:49:00,
2013-03-04 22:50:00,50.7,44.8,30.19,ENE,67,0.0,1.0,80,0.00,,CLR,0.00,0.00,VWS V14.01,2013-03-05 03:50:00,
2013-03-04 22:54:00,51.2,44.2,30.19,ENE,67,0.0,0.0,77,0.00,,CLR,0.00,0.00,VWS V14.01,2013-03-05 03:54:00,
2013-03-04 22:55:00,50.7,44.8,30.19,ENE,67,0.0,1.0,80,0.00,,CLR,0.00,0.00,VWS V14.01,2013-03-05 03:55:00,
2013-03-04 22:59:00,51.1,44.5,30.20,ENE,67,0.0,0.0,78,0.00,,CLR,0.00,0.00,VWS V14.01,2013-03-05 03:59:00,
2013-03-04 23:00:00,50.7,44.4,30.19,ENE,67,0.0,0.0,79,0.00,,CLR,0.00,0.00,VWS V14.01,2013-03-05 04:00:00,
2013-03-04 23:04:00,51.1,44.5,30.19,ENE,67,0.0,0.0,78,0.00,,CLR,0.00,0.00,VWS V14.01,2013-03-05 04:04:00,
2013-03-04 23:05:00,50.8,44.5,30.19,ENE,67,1.0,1.0,79,0.00,,CLR,0.00,0.00,VWS V14.01,2013-03-05 04:05:00,
2013-03-04 23:09:00,51.0,44.4,30.19,ENE,67,0.0,0.0,78,0.00,,CLR,0.00,0.00,VWS V14.01,2013-03-05 04:09:00,
2013-03-04 23:10:00,51.1,44.5,30.19,NE,38,0.0,2.0,78,0.00,,CLR,0.00,0.00,VWS V14.01,2013-03-05 04:10:00,
2013-03-04 23:14:00,51.0,44.7,30.19,ENE,67,0.0,0.0,79,0.00,,CLR,0.00,0.00,VWS V14.01,2013-03-05 04:14:00,
2013-03-04 23:15:00,51.5,44.5,30.19,NE,34,1.0,2.0,77,0.00,,CLR,0.00,0.00,VWS V14.01,2013-03-05 04:15:00,
2013-03-04 23:19:00,51.0,44.4,30.19,ENE,67,0.0,0.0,78,0.00,,CLR,0.00,0.00,VWS V14.01,2013-03-05 04:19:00,
2013-03-04 23:20:00,51.9,44.2,30.19,WNW,291,2.0,3.0,75,0.00,,CLR,0.00,0.00,VWS V14.01,2013-03-05 04:20:00,
2013-03-04 23:24:00,50.8,44.5,30.19,ENE,67,0.0,0.0,79,0.00,,CLR,0.00,0.00,VWS V14.01,2013-03-05 04:24:00,
2013-03-04 23:25:00,52.1,44.1,30.19,WNW,292,1.0,3.0,74,0.00,,CLR,0.00,0.00,VWS V14.01,2013-03-05 04:25:00,
2013-03-04 23:29:00,50.7,44.4,30.19,ENE,67,0.0,0.0,79,0.00,,CLR,0.00,0.00,VWS V14.01,2013-03-05 04:29:00,
2013-03-04 23:30:00,52.2,43.8,30.19,WNW,292,0.0,2.0,73,0.00,,CLR,0.00,0.00,VWS V14.01,2013-03-05 04:30:00,
2013-03-04 23:34:00,50.6,44.7,30.19,ENE,67,0.0,0.0,80,0.00,,CLR,0.00,0.00,VWS V14.01,2013-03-05 04:34:00,
2013-03-04 23:35:00,52.3,43.5,30.19,WNW,292,2.0,2.0,72,0.00,,CLR,0.00,0.00,VWS V14.01,2013-03-05 04:35:00,
2013-03-04 23:39:00,50.6,44.7,30.19,ENE,67,0.0,0.0,80,0.00,,CLR,0.00,0.00,VWS V14.01,2013-03-05 04:39:00,
2013-03-04 23:40:00,52.3,43.5,30.18,WNW,292,1.0,1.0,72,0.00,,CLR,0.00,0.00,VWS V14.01,2013-03-05 04:40:00,
2013-03-04 23:44:00,50.6,45.0,30.19,ENE,67,0.0,1.0,81,0.00,,CLR,0.00,0.00,VWS V14.01,2013-03-05 04:44:00,
2013-03-04 23:45:00,52.1,43.4,30.18,WNW,292,0.0,1.0,72,0.00,,CLR,0.00,0.00,VWS V14.01,2013-03-05 04:45:00,
2013-03-04 23:49:00,50.7,44.8,30.19,ENE,67,1.0,1.0,80,0.00,,CLR,0.00,0.00,VWS V14.01,2013-03-05 04:49:00,
2013-03-04 23:50:00,51.8,42.7,30.18,WNW,292,1.0,1.0,71,0.00,,CLR,0.00,0.00,VWS V14.01,2013-03-05 04:50:00,
2013-03-04 23:54:00,50.7,44.8,30.19,ENE,67,1.0,1.0,80,0.00,,CLR,0.00,0.00,VWS V14.01,2013-03-05 04:54:00,
2013-03-04 23:55:00,51.6,42.9,30.18,WNW,292,0.0,0.0,72,0.00,,CLR,0.00,0.00,VWS V14.01,2013-03-05 04:55:00,
2013-03-04 23:59:00,50.7,44.4,30.19,ENE,67,0.0,0.0,79,0.00,,CLR,0.00,0.00,VWS V14.01,2013-03-05 04:59:00,